Time_in_sec,Mx,My,Mz
1323447023.10220051,-0.42339203,0.48162183,-0.80827099
1323447023.15315533,-0.42368868,0.48088729,-0.80675405
1323447023.20451903,-0.42373982,0.48089704,-0.80764824
1323447023.25505877,-0.42375430,0.48186123,-0.80778319
1323447023.30563641,-0.42324474,0.48221800,-0.80788523
1323447023.36154747,-0.42499888,0.48063999,-0.80478662
1323447023.40450454,-0.42273247,0.48221371,-0.80798447
1323447023.45367336,-0.42239076,0.48003200,-0.80680424
1323447023.50206637,-0.42392814,0.48090959,-0.80867726
1323447023.55364585,-0.42545182,0.47837290,-0.80619597
1323447023.60563803,-0.42332518,0.48127189,-0.80941087
1323447023.65409589,-0.42594093,0.47899699,-0.80788249
1323447023.70462799,-0.42475528,0.48066354,-0.80732012
1323447023.75262666,-0.42317101,0.48016089,-0.80684787
1323447023.80452561,-0.42253312,0.48267975,-0.80670357
1323447023.85263705,-0.42445084,0.47957060,-0.80665904
1323447023.90448594,-0.42323664,0.48113483,-0.80787706
1323447023.95368433,-0.42298821,0.47990903,-0.80594474
1323447024.00452423,-0.42457986,0.47945166,-0.80666524
1323447024.05431366,-0.42372116,0.47858676,-0.80533880
1323447024.10565734,-0.42261842,0.48159108,-0.80606383
1323447024.15754032,-0.42449817,0.48102176,-0.80730861
1323447024.20448494,-0.42318079,0.48030627,-0.80926877
1323447024.25367737,-0.42446434,0.48137584,-0.80667263
1323447024.30448532,-0.42442524,0.48004642,-0.80615169
1323447024.35368109,-0.42427805,0.47968116,-0.80588639
1323447024.40566611,-0.42361081,0.48101598,-0.80764204
1323447024.45671844,-0.42310619,0.48026872,-0.80569911
1323447024.50565767,-0.42549250,0.48186585,-0.80647773
1323447024.55252552,-0.42551857,0.47968426,-0.80493563
1323447024.60452127,-0.42388445,0.48207974,-0.80549991
1323447024.65252328,-0.42326528,0.48027572,-0.80621719
1323447024.70208669,-0.42418367,0.48052776,-0.80639654
1323447024.75364757,-0.42444673,0.48036441,-0.80195314
1323447024.80463982,-0.42390218,0.48073784,-0.80370867
1323447024.85289431,-0.42398378,0.48012915,-0.80294484
1323447024.90167308,-0.42330283,0.48158151,-0.80444586
1323447024.95353818,-0.42527911,0.47966197,-0.80301237
1323447025.00453997,-0.42354363,0.48001841,-0.80432057
1323447025.05265951,-0.42525911,0.47893709,-0.80275148
1323447025.10155511,-0.42283472,0.48084122,-0.80314165
1323447025.15363336,-0.42379251,0.47953847,-0.80420345
1323447025.20553017,-0.42338452,0.48001143,-0.80380249
1323447025.25653267,-0.42321360,0.47940129,-0.80315214
1323447025.30492377,-0.42298102,0.48108613,-0.80340606
1323447025.35754132,-0.42499641,0.48049602,-0.80249351
1323447025.40451431,-0.42242423,0.47903031,-0.80297899
1323447025.45254469,-0.42286685,0.47928500,-0.80389637
1323447025.50238919,-0.42365789,0.48085812,-0.80395085
1323447025.55355644,-0.42479819,0.47915959,-0.80145448
1323447025.60156989,-0.42275965,0.48036954,-0.80415285
1323447025.65443683,-0.42396712,0.47966859,-0.80497795
1323447025.70453954,-0.42294517,0.48098245,-0.80505872
1323447025.75254440,-0.42406783,0.47966444,-0.80447412
1323447025.80451679,-0.42270562,0.48192158,-0.80301493
1323447025.85365129,-0.42299429,0.47914246,-0.80161035
1323447025.90226960,-0.42216524,0.48010921,-0.80284518
1323447025.95365930,-0.42299575,0.48012751,-0.80378205
1323447026.00165558,-0.42328081,0.48253876,-0.80394214
1323447026.05473423,-0.42413321,0.47902936,-0.80116248
1323447026.10164285,-0.42472628,0.48087507,-0.80451876
1323447026.15358138,-0.42247325,0.48168358,-0.80350989
1323447026.20222902,-0.42245683,0.48144010,-0.80325258
1323447026.25353646,-0.42322901,0.48048583,-0.80328804
1323447026.30210805,-0.42393669,0.48242691,-0.80410457
1323447026.35262871,-0.42245144,0.48071799,-0.80324715
1323447026.40560603,-0.42275044,0.48108885,-0.80390280
1323447026.45250916,-0.42527911,0.47966197,-0.80301237
1323447026.50456071,-0.42498955,0.48232073,-0.80441612
1323447026.55263853,-0.42467099,0.47951922,-0.80145007
1323447026.60456038,-0.42262787,0.48108882,-0.80402344
1323447026.65252638,-0.42371464,0.47966713,-0.80509144
1323447026.70197034,-0.42265156,0.48133370,-0.80440849
1323447026.75365233,-0.42343205,0.48167968,-0.80216163
1323447026.80454564,-0.42263776,0.48241270,-0.80403340
1323447026.85602403,-0.42408365,0.47904325,-0.80256057
1323447026.90564609,-0.42397186,0.48048741,-0.80269206
1323447026.95256734,-0.42396882,0.48087069,-0.80485928
1323447027.00450873,-0.42435199,0.48195535,-0.80463326
1323447027.05254197,-0.42486101,0.48073390,-0.80236048
1323447027.10183477,-0.42455953,0.48161101,-0.80604285
1323447027.15353107,-0.42289865,0.48061305,-0.80428952
1323447027.19353032,-0.42250067,0.48144844,-0.80401903
1323447027.25581789,-0.42396042,0.48267180,-0.80448961
1323447027.30455112,-0.42359352,0.48279205,-0.80485237
1323447027.35351920,-0.42409277,0.47928533,-0.80269009
1323447027.40452099,-0.42495495,0.48159304,-0.80389971
1323447027.44560862,-0.42361510,0.48000869,-0.80330580
1323447027.50180459,-0.42383635,0.48168671,-0.80243850
1323447027.55251217,-0.42472371,0.48169249,-0.80210513
1323447027.60557914,-0.42301553,0.48277521,-0.80380201
1323447027.65511823,-0.42246413,0.48144150,-0.80338031
1323447027.70555472,-0.42432380,0.48110873,-0.80424374
1323447027.75264478,-0.42393455,0.47939870,-0.80217290
1323447027.80451322,-0.42387354,0.48159695,-0.80536854
1323447027.85271430,-0.42411017,0.47868776,-0.80306882
1323447027.90159416,-0.42332575,0.48074463,-0.80495048
1323447027.95264435,-0.42461818,0.48183924,-0.80477434
1323447028.00455260,-0.42404938,0.48110309,-0.80397397
1323447028.05404496,-0.42448243,0.47928959,-0.80271149
1323447028.10567021,-0.42343363,0.48170328,-0.80445391
1323447028.15264225,-0.42424896,0.48085409,-0.80296451
1323447028.20151639,-0.42435795,0.48001027,-0.80270976
1323447028.25253463,-0.42347002,0.47913980,-0.80087233
1323447028.30158758,-0.42182556,0.48191717,-0.80347610
1323447028.35251951,-0.42440021,0.47999501,-0.80118400
1323447028.40153193,-0.42231244,0.48047447,-0.80311048
1323447028.45253682,-0.42504025,0.48050436,-0.80325997
1323447028.50158072,-0.42263719,0.48154801,-0.80186254
1323447028.55252981,-0.42398050,0.47890341,-0.80077124
1323447028.60159588,-0.42294091,0.48059776,-0.80276376
1323447028.65356684,-0.42207682,0.47901076,-0.80143183
1323447028.70151067,-0.42295182,0.48108056,-0.80289513
1323447028.75255179,-0.42502978,0.47831583,-0.80107915
1323447028.80564499,-0.42290798,0.48107222,-0.80212867
1323447028.84448218,-0.42494720,0.47976556,-0.80172163
1323447028.90565610,-0.42313734,0.48169348,-0.80380094
1323447028.94564128,-0.42451504,0.48169941,-0.80298507
1323447029.00450492,-0.42466304,0.48314643,-0.80313081
1323447029.05364299,-0.42515361,0.48122370,-0.80288929
1323447029.10236645,-0.42150891,0.48192683,-0.80473214
1323447029.15263033,-0.42361408,0.48084977,-0.80318439
1323447029.20450401,-0.42494854,0.48171201,-0.80377287
1323447029.25251627,-0.42397836,0.47940704,-0.80293936
1323447029.30562878,-0.42220706,0.48179969,-0.80336881
1323447029.35261917,-0.42470932,0.47976688,-0.80209059
1323447029.40451884,-0.42347485,0.48038918,-0.80533814
1323447029.45261788,-0.42302573,0.48121482,-0.80417347
1323447029.50212860,-0.42355633,0.48074192,-0.80445379
1323447029.55414033,-0.42179847,0.47926807,-0.80332845
1323447029.60449100,-0.42371905,0.48123029,-0.80497551
1323447029.65248823,-0.42386389,0.48049018,-0.80306816
1323447029.70451570,-0.42295089,0.48096022,-0.80289423
1323447029.75249553,-0.42461964,0.47929242,-0.80284631
1323447029.80551958,-0.42305204,0.48278219,-0.80444068
1323447029.85350633,-0.42403895,0.47891453,-0.80179322
1323447029.90595484,-0.42479235,0.48014325,-0.80349851
1323447029.95249319,-0.42331102,0.48170325,-0.80457455
1323447030.00465679,-0.42349049,0.48169079,-0.80318362
1323447030.05655670,-0.42438278,0.47845268,-0.80333674
1323447030.10464001,-0.42310688,0.48231190,-0.80545902
1323447030.15353870,-0.42403364,0.48076287,-0.80600804
1323447030.20553613,-0.42411792,0.48051524,-0.80524689
1323447030.25253463,-0.42390499,0.48013747,-0.80383188
1323447030.30185175,-0.42201725,0.48219407,-0.80679923
1323447030.35255527,-0.42345148,0.47939995,-0.80278319
1323447030.40172458,-0.42426503,0.48184192,-0.80539173
1323447030.44375491,-0.42290875,0.48001409,-0.80454051
1323447030.50450826,-0.42294359,0.48095882,-0.80276644
1323447030.55260849,-0.42453715,0.47978073,-0.80360925
1323447030.60449886,-0.42344904,0.48278785,-0.80458981
1323447030.65274453,-0.42396703,0.48063001,-0.80485743
1323447030.69253087,-0.42394769,0.48194829,-0.80435646
1323447030.75264144,-0.42332351,0.48434958,-0.80446672
1323447030.80563736,-0.42170522,0.48398396,-0.80564886
1323447030.85253024,-0.42282012,0.48083845,-0.80288619
1323447030.90566778,-0.42467213,0.48124862,-0.80579174
1323447030.95699525,-0.42356172,0.48146400,-0.80445921
1323447031.00453019,-0.42214838,0.48157150,-0.80463731
1323447031.05364037,-0.42380893,0.47978196,-0.80446076
1323447031.10160398,-0.42355409,0.48220694,-0.80650139
1323447031.15363216,-0.42338136,0.48135611,-0.80584925
1323447031.19356990,-0.42233762,0.48170438,-0.80566728
1323447031.25249362,-0.42400849,0.48306480,-0.80755103
1323447031.30557323,-0.42277911,0.48376158,-0.80634272
1323447031.34556389,-0.42357218,0.48012069,-0.80254024
1323447031.40448260,-0.42535788,0.48318550,-0.80622506
1323447031.45251656,-0.42505676,0.48331830,-0.80773753
1323447031.50645733,-0.42281011,0.48400787,-0.80685550
1323447031.55350733,-0.42535102,0.47933847,-0.80657929
1323447031.60455084,-0.42592782,0.48211917,-0.80726731
1323447031.65381575,-0.42457783,0.48113379,-0.80642247
1323447031.69364142,-0.42376465,0.48147935,-0.80574375
1323447031.76152015,-0.42414850,0.48460716,-0.80527771
1323447031.80550718,-0.42287800,0.48351675,-0.80583704
1323447031.85364652,-0.42490944,0.48038259,-0.80325192
1323447031.89361072,-0.42526686,0.48076457,-0.80492955
1323447031.95255756,-0.42242998,0.48253992,-0.80491424
1323447032.00155711,-0.42339972,0.48301879,-0.80369741
1323447032.05571771,-0.42372578,0.48036700,-0.80293238
1323447032.10163856,-0.42348194,0.48231339,-0.80522490
1323447032.15357256,-0.42338878,0.48039609,-0.80609745
1323447032.20457602,-0.42263773,0.48027277,-0.80656481
1323447032.25365257,-0.42464447,0.48126665,-0.80757302
1323447032.30213547,-0.42423457,0.48246035,-0.80704975
1323447032.35252190,-0.42389411,0.47965467,-0.80370051
1323447032.40456748,-0.42399409,0.48113918,-0.80753654
1323447032.44200397,-0.42269975,0.48076531,-0.80759037
1323447032.50451303,-0.42473334,0.48065937,-0.80693692
1323447032.55753732,-0.42551294,0.48088500,-0.80468917
1323447032.60453200,-0.42421457,0.48173544,-0.80678886
1323447032.65264010,-0.42415816,0.48004219,-0.80600971
1323447032.69264293,-0.42388409,0.48282409,-0.80766982
1323447032.75262070,-0.42285404,0.48305479,-0.80774242
1323447032.80464172,-0.42211872,0.48327169,-0.80617577
1323447032.85255671,-0.42319587,0.48074320,-0.80494338
1323447032.90564919,-0.42423007,0.48185858,-0.80704522
1323447032.95253801,-0.42341980,0.48064235,-0.80661023
1323447032.99249363,-0.42352676,0.48148069,-0.80611271
1323447033.04562449,-0.42399839,0.48366377,-0.80730009
1323447033.10187507,-0.42381141,0.48206583,-0.80422246
1323447033.15366364,-0.42354700,0.48242265,-0.80408323
1323447033.20565796,-0.42358869,0.48293462,-0.80701780
1323447033.25388670,-0.42448434,0.48210073,-0.80693352
1323447033.30450249,-0.42381746,0.48269120,-0.80651927
1323447033.34565878,-0.42456245,0.48004925,-0.80628657
1323447033.40450287,-0.42389455,0.48148078,-0.80575085
1323447033.44566536,-0.42249447,0.48317644,-0.80823296
1323447033.50172377,-0.42337003,0.48257908,-0.80776727
1323447033.55308819,-0.42469427,0.48146987,-0.80388457
1323447033.60566807,-0.42431861,0.48199564,-0.80857903
1323447033.65369582,-0.42304102,0.48112088,-0.80672026
1323447033.70555353,-0.42335552,0.48161489,-0.80763233
1323447033.74564290,-0.42410657,0.48173821,-0.80716497
1323447033.80449247,-0.42450199,0.48172024,-0.80502182
1323447033.84453201,-0.42475066,0.48102319,-0.80719513
1323447033.89263749,-0.42411646,0.48306206,-0.80717492
1323447033.95254779,-0.42134351,0.48460925,-0.80830753
1323447033.99257827,-0.42392984,0.48211172,-0.80855858
1323447034.05547476,-0.42403939,0.48427248,-0.80794328
1323447034.10166192,-0.42184117,0.48461074,-0.80795276
1323447034.14465976,-0.42285404,0.48305479,-0.80774242
1323447034.19261169,-0.42417669,0.48331389,-0.80819869
1323447034.24560046,-0.42340451,0.48426816,-0.80816323
1323447034.30246353,-0.42557025,0.48269859,-0.80546921
1323447034.35257983,-0.42542002,0.48271662,-0.80737114
1323447034.40259385,-0.42211232,0.48125073,-0.80858034
1323447034.45510268,-0.42275167,0.48185682,-0.80836499
1323447034.50151730,-0.42489481,0.48177174,-0.80962765
1323447034.55751204,-0.42548788,0.48008561,-0.80888408
1323447034.60232544,-0.42306799,0.48259151,-0.80927885
1323447034.65248489,-0.42531371,0.48178157,-0.81015998
1323447034.69251204,-0.42458728,0.48202348,-0.81101328
1323447034.75350118,-0.42390937,0.48309258,-0.81034708
1323447034.80149293,-0.42431560,0.48451883,-0.80821484
1323447034.85616803,-0.42497718,0.48224485,-0.80874419
1323447034.90449476,-0.42298740,0.48235911,-0.81016409
1323447034.95661712,-0.42245063,0.48102817,-0.80999792
1323447035.00550914,-0.42373398,0.48188069,-0.80969220
1323447035.04473543,-0.42489412,0.47972858,-0.80986774
1323447035.10611057,-0.42620522,0.47960159,-0.80790126
1323447035.15253925,-0.42385736,0.48296249,-0.80945200
1323447035.19263935,-0.42393050,0.48201498,-0.81084991
1323447035.25419712,-0.42396477,0.48209503,-0.80690509
1323447035.30450988,-0.42467582,0.48430043,-0.81001568
1323447035.34454250,-0.42372757,0.48199964,-0.80956537
1323447035.39345407,-0.42412287,0.48294309,-0.80730176
1323447035.44454861,-0.42444819,0.48488131,-0.80822468
1323447035.49405336,-0.42444202,0.48521733,-0.80580741
1323447035.54545259,-0.42381725,0.48461404,-0.80627829
1323447035.59256554,-0.42443594,0.48459196,-0.80351067
1323447035.65412569,-0.42477685,0.48569188,-0.80481046
1323447035.69255567,-0.42376614,0.48460430,-0.80538404
1323447035.74565959,-0.42328948,0.48448661,-0.80612117
1323447035.80452967,-0.42521530,0.48246059,-0.80608475
1323447035.84452820,-0.42352521,0.48145705,-0.80382049
1323447035.89250684,-0.42573038,0.48186451,-0.80610871
1323447035.95364928,-0.42401221,0.48472470,-0.80514371
1323447035.99365187,-0.42582703,0.48522463,-0.80511928
1323447036.05249166,-0.42372230,0.48459595,-0.80461764
1323447036.09364986,-0.42347059,0.48353633,-0.80714297
1323447036.14564824,-0.42430311,0.48401240,-0.80579126
1323447036.19249558,-0.42318094,0.48362467,-0.80432642
1323447036.25357771,-0.42355949,0.48506898,-0.80397540
1323447036.29249358,-0.42153478,0.48519993,-0.80704886
1323447036.34453773,-0.42276260,0.48447952,-0.80596495
1323447036.39263844,-0.42361352,0.48351693,-0.80511332
1323447036.44478583,-0.42323825,0.48543829,-0.80510646
1323447036.49364614,-0.42480192,0.48435137,-0.80314696
1323447036.54164743,-0.42375961,0.48568466,-0.80513674
1323447036.59250879,-0.42415807,0.48314351,-0.80335778
1323447036.64464951,-0.42184985,0.48516664,-0.80350053
1323447036.69364429,-0.42413235,0.48458076,-0.80272996
1323447036.74454832,-0.42371771,0.48495561,-0.80449259
1323447036.79254055,-0.42401108,0.48299533,-0.80080205
1323447036.84448171,-0.42458305,0.48591864,-0.80365545
1323447036.89363670,-0.42520711,0.48447874,-0.80342472
1323447036.94465470,-0.42350927,0.48517957,-0.80308211
1323447036.99253178,-0.42314634,0.48503691,-0.80127859
1323447037.04153585,-0.42371401,0.48543561,-0.80436850
1323447037.09350753,-0.42470339,0.48385185,-0.80148268
1323447037.14448881,-0.42351961,0.48479769,-0.80104268
1323447037.19249296,-0.42420033,0.48526815,-0.79930061
1323447037.24147415,-0.42209730,0.48584157,-0.79868025
1323447037.29250622,-0.42436394,0.48234504,-0.79572344
1323447037.34221172,-0.42286307,0.48500627,-0.79858887
1323447037.39250898,-0.42351568,0.48366868,-0.79657775
1323447037.44168472,-0.42260721,0.48474050,-0.79640836
1323447037.49251819,-0.42395189,0.48404235,-0.79736829
1323447037.54545093,-0.42279825,0.48511410,-0.79744011
1323447037.59364724,-0.42352974,0.48280677,-0.79466242
1323447037.64233279,-0.42342570,0.48607844,-0.79697198
1323447037.69254947,-0.42330062,0.48379454,-0.79733092
1323447037.74554920,-0.42344141,0.48427874,-0.79746938
1323447037.79255581,-0.42380583,0.48401451,-0.79481345
1323447037.84588361,-0.42125860,0.48570156,-0.79761469
1323447037.89352012,-0.42237610,0.48387852,-0.79473424
1323447037.94449925,-0.42211595,0.48462000,-0.79688996
1323447037.99253488,-0.42371336,0.48414040,-0.79544598
1323447038.04728031,-0.42250013,0.48486358,-0.79678535
1323447038.09251571,-0.42386639,0.48352203,-0.79366726
1323447038.14464116,-0.42364076,0.48595259,-0.79621887
1323447038.19238853,-0.42321569,0.48413888,-0.79580069
1323447038.24463296,-0.42281049,0.48401150,-0.79552299
1323447038.29407120,-0.42283374,0.48243025,-0.79385763
1323447038.34547806,-0.42346266,0.48437965,-0.79556125
1323447038.39265537,-0.42262295,0.48508069,-0.79437429
1323447038.44205976,-0.42314690,0.48450965,-0.79681826
1323447038.49364853,-0.42289767,0.48220208,-0.79500550
1323447038.54564786,-0.42293397,0.48413187,-0.79540324
1323447038.59406471,-0.42439327,0.48352909,-0.79382348
1323447038.64452076,-0.42340940,0.48487356,-0.79683518
1323447038.69395113,-0.42311984,0.48400044,-0.79413915
1323447038.74554539,-0.42313534,0.48412359,-0.79439557
1323447038.79359221,-0.42388371,0.48388585,-0.79392546
1323447038.84513474,-0.42176661,0.48532119,-0.79522049
1323447038.89354897,-0.42271271,0.48245385,-0.79627055
1323447038.94564915,-0.42254150,0.48472798,-0.79525870
1323447038.99386764,-0.42302117,0.48232245,-0.79488581
1323447039.04452968,-0.42219496,0.48482877,-0.79371244
1323447039.09251976,-0.42584965,0.48234820,-0.79453140
1323447039.14454794,-0.42240599,0.48592728,-0.79500514
1323447039.19364619,-0.42263037,0.48412067,-0.79462254
1323447039.24177670,-0.42322108,0.48486099,-0.79580611
1323447039.29365754,-0.42292061,0.48350510,-0.79297876
1323447039.34468365,-0.42274284,0.48471969,-0.79425097
1323447039.39250183,-0.42412698,0.48460662,-0.79356194
1323447039.44463110,-0.42278486,0.48448732,-0.79501563
1323447039.49252963,-0.42374289,0.48340163,-0.79378700
1323447039.54452133,-0.42302084,0.48520672,-0.79452431
1323447039.59249091,-0.42356458,0.48375154,-0.79288840
1323447039.64164019,-0.42181134,0.48544988,-0.79598784
1323447039.70551181,-0.42308253,0.48291174,-0.79362005
1323447039.74449944,-0.42414638,0.48232692,-0.79418343
1323447039.79254007,-0.42477396,0.48232988,-0.79383576
1323447039.84151983,-0.42265227,0.48412484,-0.79500580
1323447039.89352202,-0.42480847,0.48401895,-0.79423171
1323447039.95355082,-0.42271003,0.48423272,-0.79373640
1323447039.99349856,-0.42320016,0.48401576,-0.79554433
1323447040.04151011,-0.42406213,0.48257455,-0.79494458
1323447040.09252095,-0.42229685,0.48206073,-0.79357100
1323447040.14550185,-0.42328805,0.48424953,-0.79478681
1323447040.20266557,-0.42436495,0.48364389,-0.79331344
1323447040.24555278,-0.42417651,0.48245284,-0.79469532
1323447040.29444504,-0.42461956,0.48100179,-0.79356319
1323447040.34582734,-0.42290846,0.48364630,-0.79501641
1323447040.39248490,-0.42253608,0.48400587,-0.79525322
1323447040.44236231,-0.42327332,0.48520815,-0.79441082
1323447040.49254107,-0.42346838,0.48435742,-0.79339677
1323447040.54557991,-0.42350549,0.48522907,-0.79620630
1323447040.59654212,-0.42336974,0.48267943,-0.79414344
1323447040.64454842,-0.42210349,0.48411360,-0.79446632
1323447040.69251585,-0.42352772,0.48448890,-0.79441959
1323447040.74449062,-0.42408627,0.48464552,-0.79737991
1323447040.79350019,-0.42254880,0.48472935,-0.79538643
1323447040.84149051,-0.42282489,0.48593709,-0.79553747
1323447040.89365435,-0.42401046,0.48523197,-0.79597932
1323447040.94452333,-0.42324555,0.48404774,-0.79860300
1323447040.99653411,-0.42252856,0.48378739,-0.79741591
1323447041.05249810,-0.42158234,0.48547623,-0.79877681
